This is the latest recevied weather packets stored in our database for station/object DL6MAA-11. If no packets are shown the sender has not sent any weather packets the latest 10 day(s).
| Time | Temp. | Humidity | Pressure | Rain* | Wind** | Luminosity | Snow |
|---|---|---|---|---|---|---|---|
| 1777393639 | 17.22° C | 37% | 1013.5 hPa | 0 mm | - | 86 W/m² | - |
| 1777393345 | 17.78° C | 36% | 1013.5 hPa | 0 mm | - | 93 W/m² | - |
| 1777393050 | 17.78° C | 37% | 1013.5 hPa | 0 mm | - | 111 W/m² | - |
| 1777392756 | 17.78° C | 37% | 1013.2 hPa | 0 mm | - | 130 W/m² | - |
| 1777392438 | 18.33° C | 37% | 1013.2 hPa | 0 mm | - | 137 W/m² | - |
| 1777392146 | 18.33° C | 37% | 1013.2 hPa | 0 mm | - | 155 W/m² | - |
| 1777391842 | 18.33° C | 37% | 1013.1 hPa | 0 mm | - | 134 W/m² | - |
| 1777391547 | 18.89° C | 36% | 1013.1 hPa | 0 mm | - | 167 W/m² | - |
| 1777391247 | 19.44° C | 36% | 1013.1 hPa | 0 mm | - | 185 W/m² | - |
| 1777390946 | 19.44° C | 37% | 1013.1 hPa | 0 mm | - | 227 W/m² | - |
| 1777390654 | 19.44° C | 35% | 1013.1 hPa | 0 mm | - | 287 W/m² | - |
| 1777390343 | 18.89° C | 35% | 1013.1 hPa | 0 mm | - | 265 W/m² | - |
| 1777390044 | 18.89° C | 34% | 1013.1 hPa | 0 mm | - | 237 W/m² | - |
| 1777389746 | 18.89° C | 33% | 1013.1 hPa | 0 mm | - | 204 W/m² | - |
| 1777389452 | 19.44° C | 34% | 1013.1 hPa | 0 mm | - | 230 W/m² | - |
| 1777389154 | 19.44° C | 33% | 1013.1 hPa | 0 mm | - | 264 W/m² | - |
| 1777388837 | 19.44° C | 34% | 1013.1 hPa | 0 mm | - | 269 W/m² | - |
| 1777388545 | 19.44° C | 34% | 1013.1 hPa | 0 mm | - | 295 W/m² | - |
| 1777388254 | 19.44° C | 35% | 1013.2 hPa | 0 mm | - | 301 W/m² | - |
| 1777387936 | 19.44° C | 35% | 1013.2 hPa | 0 mm | - | 315 W/m² | - |
| 1777387641 | 19.44° C | 35% | 1013.2 hPa | 0 mm | - | 295 W/m² | - |
| 1777387349 | 19.44° C | 34% | 1013.1 hPa | 0 mm | - | 239 W/m² | - |
| 1777387051 | 19.44° C | 34% | 1013.1 hPa | 0 mm | - | 269 W/m² | - |
| 1777386739 | 20° C | 36% | 1013.1 hPa | 0 mm | - | 323 W/m² | - |
| 1777386444 | 20° C | 35% | 1013 hPa | 0 mm | - | 323 W/m² | - |
* Rain since midnight (hover to see other rain measurements)
** Current wind speed in m/s (hover to see current wind gust speed)